[Date Prev][Date Next][Thread Prev][Thread Next] - [Date Index][Thread Index][Author Index]
2 Line ISS Keps 6-24
- Subject: [sarex] 2 Line ISS Keps 6-24
- From: "Dave Larsen PhD" <doc@xxxxxxxxxxx>
- Date: Thu, 24 Jun 2004 04:21:40 -0700
ISS
1 25544U 98067A 04176.34324941 .00012629 00000-0 11069-3 0 607
2 25544 51.6332 289.2529 0005426 278.6945 135.6251 15.69274802319445
----
Via the sarex mailing list at AMSAT.ORG courtesy of AMSAT-NA.
To unsubscribe, send "unsubscribe sarex" to Majordomo@amsat.org
AMSAT Home